Nur fliegen ist schöner ....

Willkommen beim Flugservice Bautzen GmbH

Wir sind eine nach europäischen Richtlinien zugelassene Flugschule und lizenziertes Luftfahrtunternehmen. Bei uns können sie nicht nur Rundflüge über die Oberlausitz oder Sachsen buchen, sondern in unserer Flugschule selber das Fliegen erlernen. Erfahrene Fluglehrer stehen Ihnen dabei zur Seite.

Wir bieten Ihnen außerdem spezielle Flüge zur Vermessung oder Fotoflüge für Luftbildaufnahmen an. In Zusammenarbeit mit dem Fallschirmsportclub Dresden und dem Cottbuser Fallschirmsportclub setzen wir am Flugplatz Bautzen und Neuhausen Fallschirmspringer ab.
Schauen Sie sich in Ruhe bei uns um und wenn Sie Fragen haben oder weitere Informationen benötigen, scheuen Sie sich nicht Kontakt mit uns aufzunehmen.

Gutscheine für Rundflüge und Tandemsprünge können Sie ganz leicht auch online in unserem Shop erwerben.

Terminkalender

Letzter Monat Juli 2022 Nächster Monat
Mo Di Mi Do Fr Sa So
week 26 1 2 3
week 27 4 5 6 7 8 9 10
week 28 11 12 13 14 15 16 17
week 29 18 19 20 21 22 23 24
week 30 25 26 27 28 29 30 31

Flugwetterinfo

[Quelle: ADDS]
METAR
EDDC 060050Z AUTO 09006KT 9999 -RA FEW048 14/13 Q1021 =
EDDC 052300Z 0600/0624 31004KT CAVOK PROB30 TEMPO 0600/0602 -TSRA BKN060CB BECMG 0607/0609 30010KT BECMG 0617/0620 25005KT
TAF
EDDC 052300Z 0600/0624 31004KT CAVOK PROB30 TEMPO 0600/0602 -TSRA BKN060CB BECMG 0607/0609 30010KT BECMG 0617/0620 25005KT =
SR / SS: 02:54 / 19:18 UTC (EDAB Flugplatz Bautzen 2022-07-06)

Öffnungszeiten

des Flugplatzes Bautzen erfahren Sie hier:

flugplatz bautzen logo
Flugservice Bautzen GmbH, Kornmarkt 34, 02625 Bautzen  Telefon: +49 (3591) 211105, Telefax: +49 (3591) 274512, E-Mail:  flugservice(at)fsbautzen.de
Wir benutzen Cookies
Wir nutzen nur Cookies auf unserer Website, die essenziell für den Betrieb der Seite sind. Sie können selbst entscheiden, ob Sie die Cookies zulassen möchten. Bitte beachten Sie, dass bei einer Ablehnung womöglich nicht mehr alle Funktionalitäten der Seite zur Verfügung stehen.